Middlesboro, KY

5:31 PM EST on February 21, 2017 (GMT -0500)
Middlesboro

Weather History for K1A6 - March, 2013

Change the Weather History Date:

Thursday, March 21, 2013

  Actual Average (KLOZ) Record (KLOZ)
Temperature  
Mean Temperature 30 °F -  
Max Temperature 37 °F 58 °F 83 °F (2012)
Min Temperature 22 °F 35 °F 13 °F (1965)
Degree Days  
Heating Degree Days 36    
Moisture  
Dew Point 10 °F    
Average Humidity 45    
Maximum Humidity 62    
Minimum Humidity 33    
Precipitation  
Precipitation 0.00 in - - ()
Sea Level Pressure  
Sea Level Pressure 29.98 in    
Wind  
Wind Speed 7 mph (NW)    
Max Wind Speed 18 mph    
Max Gust Speed 23 mph    
Visibility 10 miles    
Events      
Averages and records for this station are not official NWS values.
T = Trace of Precipitation, MM = Missing Value Source: NWS Daily Summary

Daily Weather History Graph

Daily Weather History Graph

Search for Another Location

Airport or City:

Trip Planner

Search our weather history database for the weather conditions in past years. The results will help you decide how hot, cold, wet, or windy it might be!

Date:

Astronomy

Mar. 21, 2013 Rise Set
Actual Time 6:36 AM CDT 6:47 PM CDT
Civil Twilight 6:10 AM CDT 7:13 PM CDT
Nautical Twilight 5:40 AM CDT 7:43 PM CDT
Astronomical Twilight 5:10 AM CDT 8:14 PM CDT
Moon 1:24 PM CDT 2:49 AM CDT
Length of Visible Light 13h 02m
Length of Day
12h 11m
Waxing Gibbous, 69% of the Moon is Illuminated
Mar 21
Waxing Gibbous
Mar 27
Full
Apr 2
Last Quarter
Apr 10
New
Apr 18
First Quarter

Hourly Weather History & Observations

Time (CDT) Temp. Windchill Dew Point Humidity Pressure Visibility Wind Dir Wind Speed Gust Speed Precip Events Conditions
12:15 AM 29.1 °F 22.1 °F 11.1 °F 47% 29.99 in 10.0 mi WNW 6.9 mph - N/A   Clear
12:35 AM 28.4 °F 19.7 °F 11.8 °F 50% 29.99 in 10.0 mi WNW 9.2 mph - N/A   Scattered Clouds
1:15 AM 28.2 °F 21.0 °F 11.1 °F 49% 29.99 in 10.0 mi NW 6.9 mph - N/A   Overcast
1:35 AM 27.7 °F 21.3 °F 12.0 °F 52% 29.98 in 10.0 mi NNW 5.8 mph - N/A   Overcast
1:55 AM 27.1 °F 18.9 °F 12.2 °F 53% 29.97 in 10.0 mi North 8.1 mph - N/A   Overcast
2:15 AM 26.4 °F 20.9 °F 12.0 °F 55% 29.97 in 10.0 mi NW 4.6 mph - N/A   Overcast
2:35 AM 26.4 °F 18.0 °F 11.5 °F 53% 29.97 in 10.0 mi North 8.1 mph - N/A   Overcast
2:55 AM 26.6 °F 18.2 °F 11.5 °F 53% 29.97 in 10.0 mi North 8.1 mph - N/A   Overcast
3:15 AM 26.1 °F 16.8 °F 11.1 °F 53% 29.97 in 10.0 mi North 9.2 mph 18.4 mph N/A   Overcast
3:35 AM 25.5 °F 16.2 °F 10.6 °F 53% 29.96 in 10.0 mi North 9.2 mph - N/A   Overcast
3:55 AM 25.5 °F 16.2 °F 9.5 °F 51% 29.96 in 10.0 mi North 9.2 mph - N/A   Overcast
4:15 AM 25.3 °F 16.7 °F 9.5 °F 51% 29.96 in 10.0 mi North 8.1 mph - N/A   Overcast
4:35 AM 24.4 °F 14.9 °F 7.2 °F 48% 29.96 in 10.0 mi North 9.2 mph 16.1 mph N/A   Overcast
4:55 AM 23.9 °F 15.8 °F 5.9 °F 46% 29.95 in 10.0 mi North 6.9 mph - N/A   Scattered Clouds
5:15 AM 23.4 °F 16.2 °F 7.2 °F 50% 29.96 in 10.0 mi WNW 5.8 mph - N/A   Clear
5:35 AM 23.5 °F 14.5 °F 8.1 °F 52% 29.96 in 10.0 mi NNW 8.1 mph - N/A   Clear
5:55 AM 22.1 °F - 9.0 °F 57% 29.96 in 10.0 mi Calm Calm - N/A   Clear
6:15 AM 22.8 °F 18.2 °F 9.3 °F 56% 29.96 in 10.0 mi NW 3.5 mph - N/A   Clear
6:35 AM 22.5 °F 17.8 °F 10.2 °F 59% 29.96 in 10.0 mi WNW 3.5 mph - N/A   Clear
6:55 AM 22.5 °F 17.8 °F 10.4 °F 60% 29.96 in 10.0 mi West 3.5 mph - N/A   Clear
7:15 AM 23.0 °F 15.8 °F 10.2 °F 58% 29.97 in 10.0 mi West 5.8 mph - N/A   Clear
7:35 AM 23.5 °F 19.1 °F 9.5 °F 55% 29.96 in 10.0 mi WNW 3.5 mph - N/A   Clear
7:55 AM 24.3 °F 14.6 °F 9.5 °F 53% 29.97 in 10.0 mi NW 9.2 mph - N/A   Clear
8:15 AM 24.8 °F 16.9 °F 9.1 °F 51% 29.98 in 10.0 mi NW 6.9 mph - N/A   Clear
8:35 AM 26.1 °F 17.6 °F 9.7 °F 50% 29.98 in 10.0 mi NNW 8.1 mph - N/A   Scattered Clouds
8:55 AM 26.6 °F 18.2 °F 9.5 °F 49% 29.97 in 10.0 mi North 8.1 mph - N/A   Mostly Cloudy
9:15 AM 27.3 °F 22.0 °F 8.8 °F 46% 29.97 in 10.0 mi NW 4.6 mph 9.2 mph N/A   Mostly Cloudy
9:35 AM 27.5 °F 18.0 °F 8.8 °F 45% 29.98 in 10.0 mi NNW 10.4 mph - N/A   Mostly Cloudy
9:55 AM 28.6 °F 19.9 °F 8.6 °F 43% 29.99 in 10.0 mi NW 9.2 mph - N/A   Scattered Clouds
10:15 AM 29.5 °F 20.4 °F 7.5 °F 40% 29.99 in 10.0 mi West 10.4 mph 20.7 mph N/A   Mostly Cloudy
10:35 AM 29.8 °F 23.0 °F 9.3 °F 42% 29.99 in 10.0 mi WNW 6.9 mph - N/A   Mostly Cloudy
10:55 AM 30.4 °F 20.0 °F 8.1 °F 39% 29.99 in 10.0 mi NNW 13.8 mph 19.6 mph N/A   Scattered Clouds
11:35 AM 31.6 °F 23.1 °F 8.8 °F 38% 29.99 in 10.0 mi NW 10.4 mph 20.7 mph N/A   Mostly Cloudy
11:55 AM 32.0 °F 23.0 °F 8.8 °F 38% 29.98 in 10.0 mi West 11.5 mph 23.0 mph N/A   Mostly Cloudy
12:15 PM 31.3 °F 24.7 °F 8.8 °F 39% 29.98 in 10.0 mi NW 6.9 mph - N/A   Mostly Cloudy
12:35 PM 33.1 °F 23.4 °F 9.0 °F 37% 29.98 in 10.0 mi NNW 13.8 mph 19.6 mph N/A   Overcast
12:55 PM 33.6 °F 25.6 °F 10.2 °F 38% 29.97 in 10.0 mi NNW 10.4 mph 17.3 mph N/A   Mostly Cloudy
1:15 PM 33.6 °F 25.6 °F 10.2 °F 38% 29.97 in 10.0 mi NNW 10.4 mph 17.3 mph N/A   Mostly Cloudy
1:35 PM 34.3 °F 26.5 °F 10.4 °F 37% 29.97 in 10.0 mi NW 10.4 mph 20.7 mph N/A   Mostly Cloudy
1:55 PM 35.6 °F 28.0 °F 10.4 °F 35% 29.96 in 10.0 mi WNW 10.4 mph 19.6 mph N/A   Mostly Cloudy
2:15 PM 35.8 °F 25.4 °F 10.2 °F 35% 29.97 in 10.0 mi WNW 18.4 mph 21.9 mph N/A   Scattered Clouds
2:35 PM 35.4 °F 26.8 °F 9.3 °F 34% 29.96 in 10.0 mi WNW 12.7 mph 19.6 mph N/A   Scattered Clouds
2:55 PM 36.7 °F 28.9 °F 9.7 °F 33% 29.96 in 10.0 mi West 11.5 mph 18.4 mph N/A   Scattered Clouds
3:15 PM 35.2 °F 25.8 °F 10.4 °F 36% 29.96 in 10.0 mi NW 15.0 mph - N/A   Scattered Clouds
3:35 PM 37.0 °F 28.9 °F 10.6 °F 34% 29.96 in 10.0 mi WNW 12.7 mph 19.6 mph N/A   Mostly Cloudy
3:55 PM 37.2 °F 31.9 °F 10.0 °F 33% 29.96 in 10.0 mi WNW 6.9 mph - N/A   Mostly Cloudy
4:15 PM 36.3 °F 28.9 °F 10.8 °F 35% 29.96 in 10.0 mi WNW 10.4 mph - N/A   Scattered Clouds
4:35 PM 37.0 °F 29.3 °F 10.6 °F 34% 29.96 in 10.0 mi WNW 11.5 mph 17.3 mph N/A   Mostly Cloudy
4:55 PM 36.5 °F 29.2 °F 10.4 °F 34% 29.96 in 10.0 mi WNW 10.4 mph 16.1 mph N/A   Mostly Cloudy
5:15 PM 36.1 °F 29.3 °F 9.9 °F 34% 29.96 in 10.0 mi West 9.2 mph - N/A   Scattered Clouds
5:35 PM 35.6 °F 28.6 °F 9.7 °F 34% 29.96 in 10.0 mi NW 9.2 mph - N/A   Clear
5:55 PM 35.1 °F 31.0 °F 9.9 °F 35% 29.96 in 10.0 mi NNW 4.6 mph - N/A   Clear
6:15 PM 34.0 °F - 9.3 °F 36% 29.96 in 10.0 mi Calm Calm - N/A   Clear
6:35 PM 32.9 °F 28.5 °F 10.6 °F 40% 29.96 in 10.0 mi North 4.6 mph - N/A   Clear
6:55 PM 32.2 °F 28.9 °F 10.4 °F 40% 29.97 in 10.0 mi North 3.5 mph - N/A   Clear
7:15 PM 32.0 °F 27.5 °F 10.2 °F 40% 29.97 in 10.0 mi NNW 4.6 mph - N/A   Clear
7:35 PM 31.6 °F - 11.1 °F 43% 29.98 in 10.0 mi Calm Calm - N/A   Clear
7:55 PM 30.9 °F 26.2 °F 11.3 °F 44% 29.98 in 10.0 mi North 4.6 mph - N/A   Clear
8:15 PM 30.2 °F - 11.3 °F 45% 29.99 in 10.0 mi Calm Calm - N/A   Clear
8:35 PM 30.2 °F - 10.9 °F 45% 29.99 in 10.0 mi Calm Calm - N/A   Clear
8:55 PM 29.8 °F - 11.1 °F 46% 29.99 in 10.0 mi Calm Calm - N/A   Clear
9:15 PM 29.7 °F - 11.7 °F 47% 30.00 in 10.0 mi Calm Calm - N/A   Clear
10:15 PM 28.4 °F 24.6 °F 11.3 °F 49% 30.02 in 10.0 mi NNW 3.5 mph - N/A   Clear
10:35 PM 28.4 °F 24.6 °F 10.9 °F 48% 30.02 in 10.0 mi NNW 3.5 mph - N/A   Clear
10:55 PM 27.9 °F 24.0 °F 11.1 °F 50% 30.02 in 10.0 mi North 3.5 mph - N/A   Clear
11:15 PM 26.8 °F - 12.6 °F 55% 30.03 in 10.0 mi Calm Calm - N/A   Clear
11:35 PM 26.2 °F - 14.0 °F 60% 30.03 in 10.0 mi Calm Calm - N/A   Clear
11:55 PM 25.7 °F - 14.4 °F 62% 30.03 in 10.0 mi Calm Calm - N/A   Clear